Time,TemperatureF,DewpointF,PressureIn,WindDirection,WindDirectionDegrees,WindSpeedMPH,WindSpeedGustMPH,Humidity,HourlyPrecipIn,Conditions,Clouds,dailyrainin,SolarRadiationWatts/m^2,SoftwareType,DateUTC
2013-03-24 00:12:00,69.0,68.0,-100.00,SSW,207,7.0,17.0,96,0.00,,,0.16,0.000000,,2013-03-24 05:12:00,
2013-03-24 00:22:00,69.0,68.0,-100.00,SSW,207,7.0,17.0,96,0.00,,,0.16,0.000000,,2013-03-24 05:22:00,
2013-03-24 00:32:00,69.0,68.0,-100.00,SSW,207,7.0,17.0,96,0.00,,,0.16,0.000000,,2013-03-24 05:32:00,
2013-03-24 00:42:00,69.0,68.0,-100.00,SSW,207,7.0,17.0,96,0.00,,,0.16,0.000000,,2013-03-24 05:42:00,
2013-03-24 00:50:00,69.0,68.0,-100.00,SW,215,7.0,14.0,96,0.01,,,0.17,0.000000,,2013-03-24 05:50:00,
2013-03-24 01:22:00,69.0,68.0,-100.00,SW,215,7.0,14.0,96,0.01,,,0.17,0.000000,,2013-03-24 06:22:00,
2013-03-24 01:32:00,69.0,68.0,-100.00,SW,215,7.0,14.0,96,0.01,,,0.17,0.000000,,2013-03-24 06:32:00,
2013-03-24 01:42:00,69.0,68.0,-100.00,SW,215,7.0,14.0,96,0.01,,,0.17,0.000000,,2013-03-24 06:42:00,
2013-03-24 01:50:00,69.0,68.0,-100.00,SW,220,6.0,13.0,96,0.00,,,0.17,0.000000,,2013-03-24 06:50:00,
2013-03-24 02:22:00,69.0,68.0,-100.00,SW,220,6.0,13.0,96,0.00,,,0.17,0.000000,,2013-03-24 07:22:00,
2013-03-24 02:32:00,69.0,68.0,-100.00,SW,220,6.0,13.0,96,0.00,,,0.17,0.000000,,2013-03-24 07:32:00,
2013-03-24 02:42:00,69.0,68.0,-100.00,SW,220,6.0,13.0,96,0.00,,,0.17,0.000000,,2013-03-24 07:42:00,
2013-03-24 02:50:00,70.0,69.0,-100.00,WSW,248,6.0,12.0,96,0.00,,,0.17,0.000000,,2013-03-24 07:50:00,
2013-03-24 03:12:00,70.0,69.0,-100.00,WSW,248,6.0,12.0,96,0.00,,,0.17,0.000000,,2013-03-24 08:12:00,
2013-03-24 03:22:00,70.0,69.0,-100.00,WSW,248,6.0,12.0,96,0.00,,,0.17,0.000000,,2013-03-24 08:22:00,
2013-03-24 03:32:00,70.0,69.0,-100.00,WSW,248,6.0,12.0,96,0.00,,,0.17,0.000000,,2013-03-24 08:32:00,
2013-03-24 03:42:00,70.0,69.0,-100.00,WSW,248,6.0,12.0,96,0.00,,,0.17,0.000000,,2013-03-24 08:42:00,
2013-03-24 03:50:00,70.0,68.0,-100.00,West,271,9.0,15.0,95,0.00,,,0.17,0.000000,,2013-03-24 08:50:00,
2013-03-24 04:12:00,70.0,68.0,-100.00,West,271,9.0,15.0,95,0.00,,,0.17,0.000000,,2013-03-24 09:12:00,
2013-03-24 04:22:00,70.0,68.0,-100.00,West,271,9.0,15.0,95,0.00,,,0.17,0.000000,,2013-03-24 09:22:00,
2013-03-24 04:33:00,70.0,68.0,-100.00,West,271,9.0,15.0,95,0.00,,,0.17,0.000000,,2013-03-24 09:33:00,
2013-03-24 04:42:00,70.0,68.0,-100.00,West,271,9.0,15.0,95,0.00,,,0.17,0.000000,,2013-03-24 09:42:00,
2013-03-24 04:50:00,67.0,64.0,-100.00,NNW,344,10.0,16.0,89,0.00,,,0.17,0.000000,,2013-03-24 09:50:00,
2013-03-24 05:12:00,67.0,64.0,-100.00,NNW,344,10.0,16.0,89,0.00,,,0.17,0.000000,,2013-03-24 10:12:00,
2013-03-24 05:22:00,67.0,64.0,-100.00,NNW,344,10.0,16.0,89,0.00,,,0.17,0.000000,,2013-03-24 10:22:00,
2013-03-24 05:33:00,67.0,64.0,-100.00,NNW,344,10.0,16.0,89,0.00,,,0.17,0.000000,,2013-03-24 10:33:00,
2013-03-24 05:42:00,67.0,64.0,-100.00,NNW,344,10.0,16.0,89,0.00,,,0.17,0.000000,,2013-03-24 10:42:00,
2013-03-24 05:50:00,63.0,60.0,-100.00,North,358,6.0,13.0,89,0.00,,,0.17,0.000000,,2013-03-24 10:50:00,
2013-03-24 06:12:00,63.0,60.0,-100.00,North,358,6.0,13.0,89,0.00,,,0.17,0.000000,,2013-03-24 11:12:00,
2013-03-24 06:22:00,63.0,60.0,-100.00,North,358,6.0,13.0,89,0.00,,,0.17,0.000000,,2013-03-24 11:22:00,
2013-03-24 06:33:00,63.0,60.0,-100.00,North,358,6.0,13.0,89,0.00,,,0.17,0.000000,,2013-03-24 11:33:00,
2013-03-24 06:42:00,63.0,60.0,-100.00,North,358,6.0,13.0,89,0.00,,,0.17,0.000000,,2013-03-24 11:42:00,
2013-03-24 06:50:00,62.0,59.0,-100.00,NW,321,1.0,10.0,90,0.00,,,0.17,0.000000,,2013-03-24 11:50:00,
2013-03-24 07:22:00,62.0,59.0,-100.00,NW,321,1.0,10.0,90,0.00,,,0.17,0.000000,,2013-03-24 12:22:00,
2013-03-24 07:32:00,62.0,59.0,-100.00,NW,321,1.0,10.0,90,0.00,,,0.17,0.000000,,2013-03-24 12:32:00,
2013-03-24 07:42:00,62.0,59.0,-100.00,NW,321,1.0,10.0,90,0.00,,,0.17,0.000000,,2013-03-24 12:42:00,
2013-03-24 07:50:00,62.0,60.0,-100.00,WNW,286,4.0,6.0,93,0.00,,,0.17,56.000000,,2013-03-24 12:50:00,
2013-03-24 08:12:00,62.0,60.0,-100.00,WNW,286,4.0,6.0,93,0.00,,,0.17,56.000000,,2013-03-24 13:12:00,
2013-03-24 08:22:00,62.0,60.0,-100.00,WNW,286,4.0,6.0,93,0.00,,,0.17,56.000000,,2013-03-24 13:22:00,
2013-03-24 08:32:00,62.0,60.0,-100.00,WNW,286,4.0,6.0,93,0.00,,,0.17,56.000000,,2013-03-24 13:32:00,
2013-03-24 08:42:00,62.0,60.0,-100.00,WNW,286,4.0,6.0,93,0.00,,,0.17,56.000000,,2013-03-24 13:42:00,
2013-03-24 08:50:00,65.0,60.0,-100.00,West,269,5.0,9.0,85,0.00,,,0.17,257.000000,,2013-03-24 13:50:00,
2013-03-24 09:12:00,65.0,60.0,-100.00,West,269,5.0,9.0,85,0.00,,,0.17,257.000000,,2013-03-24 14:12:00,
2013-03-24 09:22:00,65.0,60.0,-100.00,West,269,5.0,9.0,85,0.00,,,0.17,257.000000,,2013-03-24 14:22:00,
2013-03-24 09:32:00,65.0,60.0,-100.00,West,269,5.0,9.0,85,0.00,,,0.17,257.000000,,2013-03-24 14:32:00,
2013-03-24 09:42:00,65.0,60.0,-100.00,West,269,5.0,9.0,85,0.00,,,0.17,257.000000,,2013-03-24 14:42:00,
2013-03-24 09:50:00,68.0,61.0,-100.00,West,276,8.0,12.0,77,0.00,,,0.17,475.000000,,2013-03-24 14:50:00,
2013-03-24 10:12:00,68.0,61.0,-100.00,West,276,8.0,12.0,77,0.00,,,0.17,475.000000,,2013-03-24 15:12:00,
2013-03-24 10:22:00,68.0,61.0,-100.00,West,276,8.0,12.0,77,0.00,,,0.17,475.000000,,2013-03-24 15:22:00,
2013-03-24 10:33:00,68.0,61.0,-100.00,West,276,8.0,12.0,77,0.00,,,0.17,475.000000,,2013-03-24 15:33:00,
2013-03-24 10:43:00,68.0,61.0,-100.00,West,276,8.0,12.0,77,0.00,,,0.17,475.000000,,2013-03-24 15:43:00,
2013-03-24 10:50:00,70.0,60.0,-100.00,WNW,291,6.0,14.0,71,0.00,,,0.17,650.000000,,2013-03-24 15:50:00,
2013-03-24 11:12:00,70.0,60.0,-100.00,WNW,291,6.0,14.0,71,0.00,,,0.17,650.000000,,2013-03-24 16:12:00,
2013-03-24 11:23:00,70.0,60.0,-100.00,WNW,291,6.0,14.0,71,0.00,,,0.17,650.000000,,2013-03-24 16:23:00,
2013-03-24 11:33:00,70.0,60.0,-100.00,WNW,291,6.0,14.0,71,0.00,,,0.17,650.000000,,2013-03-24 16:33:00,
2013-03-24 11:42:00,70.0,60.0,-100.00,WNW,291,6.0,14.0,71,0.00,,,0.17,650.000000,,2013-03-24 16:42:00,
2013-03-24 11:50:00,74.0,59.0,-100.00,West,279,12.0,20.0,59,0.00,,,0.17,787.000000,,2013-03-24 16:50:00,
2013-03-24 12:12:00,74.0,59.0,-100.00,West,279,12.0,20.0,59,0.00,,,0.17,787.000000,,2013-03-24 17:12:00,
2013-03-24 12:23:00,74.0,59.0,-100.00,West,279,12.0,20.0,59,0.00,,,0.17,787.000000,,2013-03-24 17:23:00,
2013-03-24 12:33:00,74.0,59.0,-100.00,West,279,12.0,20.0,59,0.00,,,0.17,787.000000,,2013-03-24 17:33:00,
2013-03-24 12:42:00,74.0,59.0,-100.00,West,279,12.0,20.0,59,0.00,,,0.17,787.000000,,2013-03-24 17:42:00,
2013-03-24 12:50:00,74.0,58.0,-100.00,West,276,13.0,21.0,57,0.00,,,0.17,803.000000,,2013-03-24 17:50:00,
2013-03-24 13:22:00,74.0,58.0,-100.00,West,276,13.0,21.0,57,0.00,,,0.17,803.000000,,2013-03-24 18:22:00,
2013-03-24 13:32:00,74.0,58.0,-100.00,West,276,13.0,21.0,57,0.00,,,0.17,803.000000,,2013-03-24 18:32:00,
2013-03-24 13:43:00,74.0,58.0,-100.00,West,276,13.0,21.0,57,0.00,,,0.17,803.000000,,2013-03-24 18:43:00,
2013-03-24 13:50:00,70.0,56.0,-100.00,WNW,288,15.0,24.0,61,0.00,,,0.04,824.000000,,2013-03-24 18:50:00,
2013-03-24 14:22:00,70.0,56.0,-100.00,WNW,288,15.0,24.0,61,0.00,,,0.04,824.000000,,2013-03-24 19:22:00,
2013-03-24 14:32:00,70.0,56.0,-100.00,WNW,288,15.0,24.0,61,0.00,,,0.04,824.000000,,2013-03-24 19:32:00,
2013-03-24 14:42:00,70.0,56.0,-100.00,WNW,288,15.0,24.0,61,0.00,,,0.04,824.000000,,2013-03-24 19:42:00,
2013-03-24 14:50:00,68.0,54.0,-100.00,WNW,300,14.0,24.0,62,0.00,,,0.04,756.000000,,2013-03-24 19:50:00,
2013-03-24 15:12:00,68.0,54.0,-100.00,WNW,300,14.0,24.0,62,0.00,,,0.04,756.000000,,2013-03-24 20:12:00,
2013-03-24 15:22:00,68.0,54.0,-100.00,WNW,300,14.0,24.0,62,0.00,,,0.04,756.000000,,2013-03-24 20:22:00,
2013-03-24 15:32:00,68.0,54.0,-100.00,WNW,300,14.0,24.0,62,0.00,,,0.04,756.000000,,2013-03-24 20:32:00,
2013-03-24 15:42:00,68.0,54.0,-100.00,WNW,300,14.0,24.0,62,0.00,,,0.04,756.000000,,2013-03-24 20:42:00,
2013-03-24 15:50:00,69.0,50.0,-100.00,WNW,291,14.0,25.0,51,0.00,,,0.04,658.000000,,2013-03-24 20:50:00,
2013-03-24 16:12:00,69.0,50.0,-100.00,WNW,291,14.0,25.0,51,0.00,,,0.04,658.000000,,2013-03-24 21:12:00,
2013-03-24 16:22:00,69.0,50.0,-100.00,WNW,291,14.0,25.0,51,0.00,,,0.04,658.000000,,2013-03-24 21:22:00,
2013-03-24 16:33:00,69.0,50.0,-100.00,WNW,291,14.0,25.0,51,0.00,,,0.04,658.000000,,2013-03-24 21:33:00,
2013-03-24 16:43:00,69.0,50.0,-100.00,WNW,291,14.0,25.0,51,0.00,,,0.04,658.000000,,2013-03-24 21:43:00,
2013-03-24 16:50:00,68.0,43.0,-100.00,WNW,298,15.0,28.0,41,0.00,,,0.04,546.000000,,2013-03-24 21:50:00,
2013-03-24 17:23:00,68.0,43.0,-100.00,WNW,298,15.0,28.0,41,0.00,,,0.04,546.000000,,2013-03-24 22:23:00,
2013-03-24 17:33:00,68.0,43.0,-100.00,WNW,298,15.0,28.0,41,0.00,,,0.04,546.000000,,2013-03-24 22:33:00,
2013-03-24 17:43:00,68.0,43.0,-100.00,WNW,298,15.0,28.0,41,0.00,,,0.04,546.000000,,2013-03-24 22:43:00,
2013-03-24 17:50:00,67.0,29.0,-100.00,WNW,297,15.0,25.0,24,0.00,,,0.03,343.000000,,2013-03-24 22:50:00,
2013-03-24 18:12:00,67.0,29.0,-100.00,WNW,297,15.0,25.0,24,0.00,,,0.03,343.000000,,2013-03-24 23:12:00,
2013-03-24 18:22:00,67.0,29.0,-100.00,WNW,297,15.0,25.0,24,0.00,,,0.03,343.000000,,2013-03-24 23:22:00,
2013-03-24 18:32:00,67.0,29.0,-100.00,WNW,297,15.0,25.0,24,0.00,,,0.03,343.000000,,2013-03-24 23:32:00,
2013-03-24 18:42:00,67.0,29.0,-100.00,WNW,297,15.0,25.0,24,0.00,,,0.03,343.000000,,2013-03-24 23:42:00,
2013-03-24 18:50:00,64.0,33.0,-100.00,NW,325,12.0,22.0,31,0.00,,,0.01,128.000000,,2013-03-24 23:50:00,
2013-03-24 19:22:00,64.0,33.0,-100.00,NW,325,12.0,22.0,31,0.00,,,0.01,128.000000,,2013-03-25 00:22:00,
2013-03-24 19:32:00,64.0,33.0,-100.00,NW,325,12.0,22.0,31,0.00,,,0.01,128.000000,,2013-03-25 00:32:00,
2013-03-24 19:42:00,64.0,33.0,-100.00,NW,325,12.0,22.0,31,0.00,,,0.01,128.000000,,2013-03-25 00:42:00,
2013-03-24 19:50:00,59.0,30.0,-100.00,NW,323,10.0,28.0,33,0.00,,,0.01,6.000000,,2013-03-25 00:50:00,
2013-03-24 20:12:00,59.0,30.0,-100.00,NW,323,10.0,28.0,33,0.00,,,0.01,6.000000,,2013-03-25 01:12:00,
2013-03-24 20:22:00,59.0,30.0,-100.00,NW,323,10.0,28.0,33,0.00,,,0.01,6.000000,,2013-03-25 01:22:00,
2013-03-24 20:32:00,59.0,30.0,-100.00,NW,323,10.0,28.0,33,0.00,,,0.01,6.000000,,2013-03-25 01:32:00,
2013-03-24 20:42:00,59.0,30.0,-100.00,NW,323,10.0,28.0,33,0.00,,,0.01,6.000000,,2013-03-25 01:42:00,
2013-03-24 20:50:00,55.0,28.0,-100.00,NW,321,9.0,23.0,35,0.00,,,0.01,0.000000,,2013-03-25 01:50:00,
2013-03-24 21:22:00,55.0,28.0,-100.00,NW,321,9.0,23.0,35,0.00,,,0.01,0.000000,,2013-03-25 02:22:00,
2013-03-24 21:33:00,55.0,28.0,-100.00,NW,321,9.0,23.0,35,0.00,,,0.01,0.000000,,2013-03-25 02:33:00,
2013-03-24 21:42:00,55.0,28.0,-100.00,NW,321,9.0,23.0,35,0.00,,,0.01,0.000000,,2013-03-25 02:42:00,
2013-03-24 21:50:00,53.0,30.0,-100.00,NW,325,6.0,14.0,41,0.00,,,0.01,0.000000,,2013-03-25 02:50:00,
2013-03-24 22:13:00,53.0,30.0,-100.00,NW,325,6.0,14.0,41,0.00,,,0.01,0.000000,,2013-03-25 03:13:00,
2013-03-24 22:23:00,53.0,30.0,-100.00,NW,325,6.0,14.0,41,0.00,,,0.01,0.000000,,2013-03-25 03:23:00,
2013-03-24 22:33:00,53.0,30.0,-100.00,NW,325,6.0,14.0,41,0.00,,,0.01,0.000000,,2013-03-25 03:33:00,
2013-03-24 22:42:00,53.0,30.0,-100.00,NW,325,6.0,14.0,41,0.00,,,0.01,0.000000,,2013-03-25 03:42:00,
2013-03-24 22:50:00,50.0,28.0,-100.00,NNW,332,9.0,20.0,43,0.00,,,0.01,0.000000,,2013-03-25 03:50:00,
2013-03-24 23:12:00,50.0,28.0,-100.00,NNW,332,9.0,20.0,43,0.00,,,0.01,0.000000,,2013-03-25 04:12:00,
2013-03-24 23:22:00,50.0,28.0,-100.00,NNW,332,9.0,20.0,43,0.00,,,0.01,0.000000,,2013-03-25 04:22:00,
2013-03-24 23:33:00,50.0,28.0,-100.00,NNW,332,9.0,20.0,43,0.00,,,0.01,0.000000,,2013-03-25 04:33:00,
2013-03-24 23:43:00,50.0,28.0,-100.00,NNW,332,9.0,20.0,43,0.00,,,0.01,0.000000,,2013-03-25 04:43:00,
2013-03-24 23:50:00,48.0,29.0,-100.00,NNW,331,9.0,17.0,48,0.00,,,0.01,0.000000,,2013-03-25 04:50:00,